Location: Unspecified
(0.0000°N, 0.0000°E)
Time: 05:54:37
(UTC+00:00)

Tiros 1 despin weight - Visible Passes

Search period start: 31 May 2016 00:00
Search period end: 10 June 2016 00:00
Orbit: 595 x 645 km, 48.2° (Epoch: 30 May)

Date Brightness Start Highest point End Pass type
(mag) Time Alt. Az. Time Alt. Az. Time Alt. Az.
31 May ? 18:20:42 10° SSW 18:24:50 32° SE 18:28:59 10° ENE visible
31 May ? 20:02:55 10° W 20:06:17 20° NW 20:09:42 10° N visible
01 Jun ? 18:37:25 10° SW 18:42:04 89° ESE 18:46:45 10° NE visible
02 Jun ? 05:08:05 10° NNE 05:09:17 11° NE 05:10:31 10° ENE visible
02 Jun ? 18:55:09 10° WSW 18:59:19 32° NW 19:03:29 10° NNE visible
03 Jun ? 05:22:41 10° N 05:26:37 29° NE 05:30:30 10° ESE visible
03 Jun ? 19:14:37 10° WNW 19:16:37 13° NW 19:18:36 10° NNW visible
05 Jun ? 04:16:35 10° N 04:19:38 18° NE 04:22:41 10° E visible
06 Jun ? 04:32:33 10° NNW 04:36:54 48° NE 04:41:14 10° SE visible
07 Jun ? 03:11:50 10° NE 03:12:37 10° NE 03:13:24 10° ENE visible
07 Jun ? 04:49:42 10° NW 04:54:08 57° SW 04:58:32 10° SSE visible
08 Jun ? 03:31:32 22° E 03:31:32 22° E 03:33:49 10° ESE visible
08 Jun ? 05:08:54 14° W 05:11:23 21° SW 05:14:44 10° S visible
09 Jun ? 03:51:29 11° SE 03:51:29 11° SE 03:51:41 10° SE visible
